SCP
1 2 3 3 3 3 3 2 2 2 1 1 1 1 1 1 1 0 0 0 0 0 0 0 0 0 0 0 0 0 1 1 1 1 1 0 0 0 1 1 2 2 1
0 2 3 3 3 3 3 3 3 2 2 1 1 2 2 1 1 1 0 0 0 0 0 0 0 0 0 0 0 0 1 1 1 1 0 0 0 0 1 1 2 2 2
0 1 3 3 3 3 3 3 3 3 2 2 1 1 1 1 1 1 0 0 0 0 0 0 0 0 0 0 0 0 1 1 1 0 0 0 0 0 0 1 1 2 2
0 1 3 3 3 3 3 3 3 3 2 2 1 1 1 1 1 1 1 0 0 0 0 0 0 0 0 0 0 0 0 1 0 0 0 0 0 0 0 1 1 1 2
0 1 3 5 4 3 3 2 2 2 2 2 1 1 1 1 1 1 1 0 0 0 0 0 0 0 0 0 0 0 0 0 0 0 0 0 0 0 0 0 1 1 1
0 1 3 5 5 4 3 2 2 2 1 2 1 1 1 1 1 1 1 0 0 0 0 0 0 0 0 0 0 0 0 0 0 0 0 0 0 0 0 0 0 1 1
0 1 3 5 5 4 3 2 2 1 1 1 1 1 1 1 1 1 1 0 1 0 0 0 0 0 0 0 0 0 0 0 0 0 0 0 0 0 0 0 0 0 1
0 1 2 4 4 4 4 3 2 1 1 1 1 1 1 1 1 1 1 1 0 0 0 0 0 0 0 0 0 0 0 0 0 0 0 0 0 0 0 0 0 0 0
0 1 2 4 4 4 4 3 3 2 1 1 1 1 1 1 1 1 1 0 0 0 0 0 0 0 0 0 0 0 0 0 0 0 0 0 0 0 0 0 0 0 0
0 0 1 2 3 3 3 3 3 2 1 0 0 0 1 1 0 0 0 0 0 0 0 0 0 0 0 0 0 0 0 0 0 0 0 0 0 0 0 0 0 0 0
0 0 1 1 1 2 2 2 2 1 0 0 0 0 0 0 0 0 0 0 0 0 0 0 0 0 0 0 0 0 0 0 0 0 0 0 0 0 0 0 0 0 0
0 0 0 0 0 0 1 1 0 0 0 0 0 0 0 0 0 0 0 0 0 0 0 0 0 0 0 0 0 0 0 0 0 0 0 0 0 0 0 0 0 0 0
0 0 0 0 0 0 0 0 0 0 0 0 0 0 0 0 0 0 0 0 0 0 0 0 0 0 0 0 0 0 0 0 0 0 0 0 0 0 0 0 0 0 0
0 0 0 0 0 0 0 0 0 0 0 0 0 0 0 0 0 0 0 0 0 0 0 0 0 0 0 0 0 0 0 0 0 0 0 0 0 0 0 0 0 0 0
0 0 0 0 0 0 0 0 0 0 0 0 0 0 0 0 0 0 0 0 0 0 0 0 0 0 0 0 0 0 0 0 0 0 0 0 0 0 0 0 0 0 0
0 0 0 0 0 0 0 0 0 0 0 0 0 0 0 0 0 0 0 0 0 0 0 0 0 0 0 0 0 0 0 0 0 0 0 0 0 0 0 0 0 0 0
0 0 0 0 0 0 0 0 0 0 0 0 0 0 0 0 0 0 0 0 0 0 0 0 0 0 0 0 0 0 0 0 0 0 0 0 0 0 0 0 0 0 0
0 0 0 0 0 0 0 0 0 0 0 0 0 0 0 0 0 0 0 0 0 0 0 0 0 0 0 0 0 0 0 0 0 0 0 0 0 0 0 0 0 0 0
0 0 0 0 0 0 0 0 0 0 0 0 0 0 0 0 0 0 0 0 0 0 0 0 0 0 0 0 0 0 0 0 0 0 0 0 0 0 0 0 0 0 0
0 0 0 0 0 0 0 0 0 0 0 0 0 0 0 0 0 0 0 0 0 0 0 0 0 0 0 0 0 0 0 0 0 0 0 0 0 0 0 0 0 0 0
0 0 0 0 0 0 0 0 0 0 0 0 0 0 0 0 0 0 0 0 0 0 0 0 0 0 0 0 0 0 0 0 0 0 0 0 0 0 0 0 0 0 0
0 0 0 0 0 0 0 0 0 0 0 0 0 0 0 0 0 0 0 0 0 0 0 0 0 0 0 0 0 0 0 0 0 0 0 0 0 0 0 0 0 0 0
0 0 0 0 0 0 0 0 0 0 0 0 0 0 0 0 0 0 0 0 0 0 0 0 0 0 0 0 0 0 0 0 0 0 0 0 0 0 0 0 0 0 0
0 0 0 0 0 0 0 0 0 0 0 0 0 0 0 0 0 0 0 0 0 0 0 0 0 0 0 0 0 0 0 0 0 0 0 0 0 0 0 0 0 0 0
0 0 0 0 0 0 0 0 0 0 0 0 0 0 0 0 0 0 0 0 0 0 0 0 0 0 0 0 0 0 0 0 0 0 0 0 0 0 0 0 0 0 0
0 0 0 0 0 0 0 0 0 0 0 0 0 0 0 0 0 0 0 0 0 0 0 0 0 0 0 0 0 0 0 0 0 0 0 0 0 0 0 0 0 0 0
Wind_Speed
2 3 3 3 3 3 3 3 3 2 2 1 1 0 0 0 0 0 1 1 1 1 0 1 1 1 1 1 0 0 0 0 0 1 1 1 1 1 1 1 1 2 2
1 2 2 2 3 2 3 3 3 2 2 1 1 1 1 1 1 1 0 0 1 1 1 0 1 1 1 1 0 0 0 1 0 1 1 0 1 1 2 2 2 2 2
1 1 1 1 2 2 2 2 2 2 2 2 1 0 0 1 1 1 1 1 1 1 1 1 1 1 1 1 1 1 1 1 1 1 1 2 2 1 1 2 3 3 2
1 1 1 0 1 1 1 1 2 2 2 2 2 2 1 2 2 1 1 1 1 1 1 1 1 1 1 1 2 1 1 2 2 1 1 1 1 1 0 1 2 3 3
1 0 0 1 1 1 1 1 1 1 2 2 2 2 2 2 1 1 2 2 1 1 1 1 1 1 1 2 2 2 2 2 2 1 1 1 1 1 2 1 1 1 2
1 1 1 1 1 1 1 1 1 1 1 1 2 2 2 2 2 2 2 2 1 1 2 2 2 2 2 2 2 2 3 3 3 2 2 2 2 2 1 2 2 2 2
2 1 1 1 1 1 1 1 1 1 1 2 2 2 2 3 3 3 2 2 2 2 2 2 2 2 2 2 2 3 3 3 3 3 3 3 2 2 1 2 2 1 1
2 2 1 1 1 1 1 1 1 1 2 2 2 2 2 2 2 2 2 2 2 2 3 3 3 3 3 3 3 3 3 3 3 4 4 3 3 2 2 2 2 1 2
4 4 2 1 1 1 1 2 2 2 2 3 2 2 2 2 2 2 2 2 3 3 3 3 3 4 4 4 3 3 4 3 4 5 4 3 3 3 2 2 3 3 3
5 4 3 2 1 1 1 2 2 2 2 2 2 2 2 2 2 2 3 3 3 3 4 4 4 4 4 4 4 4 4 4 4 4 4 4 3 3 3 3 2 2 3
4 4 4 3 2 1 1 1 2 2 3 3 3 3 2 2 2 2 3 3 3 3 4 4 4 4 4 4 4 4 5 5 5 5 5 5 4 4 3 3 3 3 3
4 4 4 3 2 2 2 2 2 3 3 3 3 3 3 2 2 3 3 3 3 4 4 4 4 4 4 4 5 5 5 6 6 5 5 5 4 5 4 4 4 3 3
4 4 4 4 3 2 2 2 2 3 3 3 3 3 3 3 3 3 3 3 3 4 4 4 4 4 4 5 5 5 5 6 6 6 6 6 5 6 5 5 4 4 4
5 5 5 4 4 3 3 3 3 3 4 3 3 4 4 4 4 3 3 3 3 4 4 4 4 4 4 5 5 5 5 6 6 6 6 6 6 7 6 5 5 5 4
6 6 6 6 5 4 4 3 4 3 4 4 4 4 4 4 3 3 4 3 3 4 4 4 4 4 4 5 5 5 5 6 6 6 6 6 8 9 7 6 6 6 5
6 6 7 7 7 6 5 5 4 4 4 4 4 4 4 4 3 4 4 4 3 4 4 4 4 5 5 7 8 6 5 5 6 6 6 6 7 9 10 10 9 8 7
7 7 7 7 7 6 6 5 5 5 4 4 4 4 4 4 3 4 3 3 4 3 4 4 4 5 6 8 8 8 5 5 6 6 6 5 6 8 6 8 9 9 10
8 7 7 7 7 6 6 5 4 4 4 4 4 4 4 4 3 3 4 4 3 3 4 4 4 4 6 8 9 9 6 5 6 7 7 6 6 7 7 6 6 6 7
7 7 6 6 6 6 6 5 5 4 4 4 4 4 4 4 4 4 3 3 3 4 4 4 4 4 5 8 8 8 4 5 6 7 7 7 7 10 10 7 7 6 5
7 7 6 6 6 6 5 5 5 5 5 5 5 4 4 4 4 4 3 3 3 3 4 4 3 4 4 7 7 6 3 4 4 5 6 8 9 10 10 8 7 7 6
8 7 6 6 6 6 5 5 5 5 5 5 5 4 4 3 3 3 2 2 3 3 3 4 3 3 4 5 6 5 3 3 4 4 4 4 8 10 11 9 7 8 6
8 7 6 6 6 6 5 5 6 6 5 5 4 4 4 3 3 2 2 2 2 3 3 3 3 3 3 4 4 5 4 3 2 3 3 3 6 7 9 8 8 9 7
8 7 6 6 7 6 6 6 7 6 5 5 4 4 4 3 3 2 2 2 2 2 2 2 2 3 3 3 6 5 5 4 2 2 3 4 6 6 5 7 7 6 5
7 7 7 7 7 7 7 6 6 6 5 5 5 4 3 3 3 2 2 2 2 2 2 2 3 3 3 3 3 2 2 3 3 2 3 3 2 1 2 2 3 3 3
7 7 6 6 7 7 7 7 7 6 5 5 5 4 4 4 3 3 2 2 2 2 2 2 2 2 2 4 6 4 2 1 1 1 1 1 0 0 0 0 1 1 2
7 7 7 7 7 7 7 7 7 6 5 5 5 4 3 3 3 3 3 5 4 6 6 5 4 3 4 7 7 7 6 5 3 1 1 0 0 0 0 0 0 0 0
Wind_Direction
143 123 117 115 120 131 136 139 135 132 128 132 135 158 191 185 188 250 241 260 286 297 251 277 297 304 275 256 242 170 130 355 51 78 37 343 252 200 173 171 162 173 163
108 114 122 130 141 150 150 148 150 152 149 158 186 203 219 242 247 264 285 312 324 304 294 253 258 285 287 277 267 113 199 257 210 144 140 161 277 243 192 172 181 186 173
158 125 113 144 147 159 161 170 166 168 167 157 153 160 31 351 321 297 273 287 300 292 287 263 251 256 269 241 239 221 185 217 254 207 169 168 205 223 218 196 189 185 183
122 127 131 170 176 174 166 172 177 178 180 175 177 184 210 228 259 258 267 277 269 264 269 258 248 242 242 251 244 233 230 203 229 257 271 215 174 172 208 250 206 192 185
33 90 142 203 197 173 169 181 193 197 200 201 196 196 224 244 245 245 257 269 264 247 243 258 254 242 241 246 252 237 234 224 219 226 242 261 280 247 170 220 229 223 211
2 348 34 42 7 52 109 188 210 230 217 223 215 212 226 235 229 235 238 248 257 250 233 244 245 242 238 235 246 245 239 234 231 229 224 214 208 210 188 204 207 218 228
10 360 20 22 3 7 2 308 251 269 250 240 232 234 231 231 226 228 232 238 247 255 238 244 240 242 242 237 243 240 240 234 227 225 229 229 229 220 210 200 219 249 257
11 1 8 26 356 336 333 322 290 288 280 263 253 249 249 242 234 234 239 246 250 252 241 240 235 238 241 244 246 245 235 235 228 231 228 226 228 223 211 197 187 228 266
7 0 357 13 355 314 304 308 307 301 287 281 278 263 257 260 252 247 245 251 253 254 244 242 238 238 233 231 234 241 233 230 230 228 223 223 223 217 221 213 193 188 218
359 352 350 347 343 306 304 320 318 309 297 295 290 290 278 263 259 258 255 251 249 251 247 245 238 240 236 230 229 238 233 229 238 230 222 225 217 215 213 214 220 210 209
350 343 343 340 338 336 324 320 319 320 317 310 307 298 289 279 261 256 257 257 259 255 253 251 244 243 240 234 229 235 234 228 236 235 224 224 215 211 213 210 217 224 214
357 348 343 338 339 330 318 312 317 317 313 313 308 299 294 287 277 273 270 270 265 258 256 258 254 248 242 238 231 236 239 226 226 229 224 222 219 213 214 211 215 222 218
358 355 348 339 337 333 329 320 316 312 311 310 301 295 294 291 284 280 279 274 273 273 269 259 252 249 242 241 240 236 239 232 225 225 225 221 216 218 216 213 217 222 227
356 353 346 339 338 335 328 319 313 307 306 302 296 290 287 283 283 286 284 276 274 275 270 265 257 254 247 242 242 239 236 231 227 226 227 222 218 217 214 216 217 219 219
350 347 343 337 333 330 323 317 314 312 305 299 294 288 293 292 295 293 287 281 274 273 271 266 261 259 253 243 239 238 232 227 228 228 227 226 221 223 222 220 211 211 212
339 340 338 334 331 328 319 318 316 311 304 294 292 295 296 297 296 295 291 285 278 275 271 264 260 255 253 258 255 248 239 230 228 230 230 231 224 224 230 234 234 228 216
331 334 331 326 321 319 317 311 308 309 303 295 295 297 295 294 292 296 295 290 284 277 272 268 264 261 257 260 260 253 248 232 229 227 225 230 228 223 216 227 233 239 239
332 325 323 322 319 318 319 311 308 307 308 309 303 302 300 297 297 293 289 290 289 283 278 278 276 268 265 264 261 260 249 237 232 229 223 222 225 225 215 213 219 223 228
325 320 318 317 319 321 322 322 319 316 318 317 309 302 296 293 293 290 293 296 293 289 283 281 277 274 274 268 264 260 241 234 233 232 226 222 222 230 227 212 211 219 226
330 326 325 326 328 326 328 326 322 326 324 319 311 304 296 289 286 285 289 295 291 289 292 291 288 278 279 276 271 260 235 235 235 231 228 230 227 231 230 209 205 215 218
329 330 331 334 331 331 333 329 327 324 320 318 318 315 307 296 285 282 287 294 295 299 298 299 301 295 294 291 281 270 245 234 236 233 226 225 228 233 232 225 213 221 216
337 340 340 339 339 342 341 336 331 325 325 325 325 324 323 319 314 294 294 299 297 299 302 308 311 309 306 314 304 290 282 272 243 242 235 228 231 235 237 233 227 226 219
340 343 345 345 346 347 347 340 330 332 336 344 341 338 339 336 338 334 322 321 316 315 314 317 317 326 327 324 324 319 310 299 283 269 271 258 246 235 230 228 231 224 210
342 346 351 351 344 345 345 336 332 337 348 349 346 345 348 348 351 348 341 335 329 332 329 331 329 329 336 341 340 334 325 314 301 309 314 308 306 287 256 238 232 224 210
343 347 349 347 344 346 347 343 345 348 352 350 346 346 347 343 346 346 344 340 337 346 341 327 315 328 331 333 336 339 333 326 284 313 26 13 32 87 48 310 255 229 208
344 347 349 349 345 347 347 346 347 349 351 346 345 345 349 351 352 352 353 352 352 343 339 340 341 325 328 331 334 338 341 338 335 5 64 19 34 38 241 255 317 332 267